Theta_e
278 278 278 278 278 278 278 278 279 278 278 278 278 278 276 276 274 272 272 274 275 277 279 277 280 283 283 283 284 284 284 285 286 285 286 287 289 292 294 295 296 297 297 297 298 298 300 301 303 305 305 306 306 307 307 307 307 308 309 311 313 316 318 321 327 329 329 329 328 329 328 328 329 328
277 278 278 278 278 278 278 278 278 278 278 278 278 278 278 278 275 275 273 273 277 276 279 279 279 281 281 282 282 282 282 284 284 283 284 286 287 290 291 292 294 295 296 297 297 298 298 299 301 301 303 306 307 308 309 309 309 310 310 311 313 314 317 319 324 327 326 328 328 328 328 328 328 327
277 276 276 277 277 277 277 277 278 278 278 278 278 278 278 278 278 276 275 273 275 279 276 279 280 280 280 280 280 281 281 283 283 284 285 285 286 287 287 288 291 292 294 295 296 298 298 300 301 301 302 304 305 306 307 307 307 308 310 311 312 313 315 318 320 325 326 327 328 328 328 328 328 329
276 275 275 276 276 277 277 277 277 277 278 278 278 278 278 278 278 277 276 274 273 277 277 278 279 280 279 279 279 280 281 284 285 283 283 283 285 283 283 286 287 289 291 292 293 294 296 298 299 301 301 302 303 305 306 306 306 306 307 310 312 312 313 315 317 322 324 324 326 327 326 326 326 327
274 274 274 274 275 275 275 275 275 276 276 276 276 277 276 276 276 276 275 273 273 276 279 278 278 279 278 277 278 278 280 280 281 282 281 281 281 281 281 282 284 286 288 289 291 292 293 296 298 299 300 301 302 303 305 304 304 306 307 309 311 312 313 315 316 320 322 324 324 325 324 325 325 325
273 273 273 273 273 273 273 273 273 273 273 273 273 273 274 274 275 276 274 273 273 272 275 275 277 276 277 275 277 277 277 278 280 279 279 280 279 279 280 280 280 284 286 288 289 291 292 293 294 296 298 301 301 302 304 304 304 306 307 308 309 310 311 312 315 319 320 323 324 325 324 324 325 324
271 271 271 271 271 271 271 271 271 272 271 272 271 271 272 272 272 272 272 270 269 270 270 273 273 274 275 275 275 276 276 277 278 277 277 277 278 279 279 279 280 284 286 288 289 290 291 292 293 294 295 300 301 301 300 304 304 305 307 309 310 309 308 310 312 316 320 322 325 324 323 323 324 324
270 269 269 269 270 270 269 269 270 270 270 270 270 270 271 271 270 271 271 271 270 270 269 271 272 273 273 274 275 276 277 277 276 276 276 277 277 277 278 278 278 281 285 286 288 289 291 292 293 294 295 299 298 301 302 302 303 305 306 307 308 309 309 309 310 312 317 320 323 324 323 323 323 323
270 269 269 269 269 269 268 268 269 269 269 269 269 269 270 270 270 270 270 270 270 269 269 270 272 273 272 274 274 275 274 275 275 276 275 276 276 277 278 279 281 284 287 288 289 290 292 293 294 295 297 298 298 301 301 302 302 303 304 304 305 308 309 309 309 310 312 316 317 321 322 323 322 322
269 269 268 269 269 268 268 268 268 268 268 269 269 269 269 270 270 270 270 270 270 269 269 269 269 271 271 271 272 274 275 275 274 274 275 276 276 277 277 279 282 284 285 286 288 290 292 293 294 296 296 298 299 300 301 300 300 301 301 302 303 305 307 309 309 310 311 312 314 317 319 321 321 321
269 269 269 269 269 269 269 268 268 269 269 269 269 270 270 270 270 270 270 270 269 269 268 269 270 270 271 272 270 273 275 274 274 273 273 273 276 278 278 279 281 283 284 286 289 289 290 292 293 295 297 298 299 300 300 300 300 300 300 301 302 303 306 308 308 309 310 311 312 314 315 316 320 320
271 271 271 270 270 270 270 270 270 270 270 270 270 270 270 270 270 269 270 270 269 269 269 269 269 270 270 271 272 274 274 273 273 274 274 273 274 275 277 278 279 281 283 284 285 288 289 291 294 296 298 299 299 299 299 300 300 299 300 301 302 303 304 306 308 308 309 310 311 313 314 314 315 319
272 272 272 272 272 272 274 275 276 276 276 273 272 272 271 269 269 269 269 269 269 269 269 269 270 270 270 270 271 271 271 271 271 273 274 273 273 274 276 278 281 282 282 284 286 286 288 291 293 295 295 297 297 297 297 297 297 298 300 301 302 303 304 305 307 307 308 309 310 312 313 313 313 314
272 272 272 273 275 276 276 276 277 277 278 278 276 274 274 273 273 271 270 269 270 269 268 268 269 268 269 270 271 271 271 272 273 273 273 272 273 275 275 277 280 284 284 283 284 287 289 289 289 290 290 292 294 295 298 299 300 299 301 301 302 303 304 305 306 307 308 309 309 310 311 311 312 313
272 272 273 273 274 274 275 274 276 277 277 278 278 278 278 278 274 272 272 272 272 270 270 270 270 270 269 270 271 271 272 273 273 273 273 273 274 273 273 273 277 281 284 282 280 281 285 288 287 288 289 291 292 293 296 299 300 301 302 302 302 302 302 303 304 306 307 308 309 310 310 311 311 311
272 272 272 273 273 272 273 273 273 275 277 278 278 278 278 278 279 278 275 273 272 272 271 271 271 271 271 271 272 272 273 272 273 274 274 274 274 274 274 274 274 278 281 280 280 280 283 284 284 285 288 290 291 293 295 298 299 301 303 303 303 302 302 302 303 304 306 308 308 309 310 310 311 311
272 272 272 272 272 272 275 274 274 273 273 276 277 278 278 278 278 279 279 279 275 273 272 271 271 272 273 273 273 274 274 275 274 275 275 275 276 275 275 275 276 278 281 280 277 277 279 281 282 284 287 289 291 292 295 297 299 300 301 302 303 303 303 303 303 304 306 307 308 308 309 310 310 310
271 271 271 271 271 273 273 273 273 274 273 273 274 274 274 273 275 277 278 278 278 277 274 272 271 272 273 272 274 276 277 276 274 275 274 275 275 275 275 276 277 278 280 277 277 276 278 280 282 283 287 290 291 291 293 295 297 298 299 300 302 304 303 303 303 304 305 307 308 309 309 309 309 309
272 272 272 272 272 273 273 273 274 274 274 275 275 274 274 274 274 274 273 273 273 273 273 273 273 273 274 274 274 275 276 276 276 276 275 275 275 275 276 276 277 277 279 278 277 274 278 282 283 285 287 288 289 290 292 294 295 297 298 299 300 302 304 303 304 304 306 307 308 308 308 308 309 309
272 273 273 272 272 273 273 276 278 278 277 275 274 273 273 273 274 274 276 278 278 276 275 275 275 275 276 278 277 277 277 277 277 277 277 276 275 274 273 272 275 276 279 281 281 279 281 284 284 285 287 287 287 289 289 293 295 297 297 298 299 301 303 304 304 305 306 307 307 308 308 308 308 308
272 273 273 273 274 274 274 277 279 279 278 275 273 273 272 272 272 272 274 277 279 279 280 280 281 281 282 282 282 282 283 280 279 277 275 274 275 273 272 273 274 275 278 280 281 281 281 284 285 285 286 286 287 288 289 290 294 296 297 298 299 300 302 304 304 305 306 307 307 308 308 308 307 307
273 274 276 276 275 274 274 277 278 279 277 274 273 273 272 271 271 272 274 274 275 278 279 280 280 280 281 281 282 282 282 282 281 277 274 276 276 274 274 273 275 276 278 279 281 279 279 282 285 284 286 286 287 288 288 290 291 294 296 298 300 301 302 303 304 305 306 306 307 307 308 307 306 310
273 274 275 276 276 275 275 277 278 278 277 274 273 273 272 271 271 272 273 273 273 273 274 274 274 275 277 277 276 277 280 281 281 279 278 278 276 274 275 275 275 274 276 279 282 278 279 281 283 284 283 282 285 287 287 288 290 291 291 293 295 298 300 303 304 305 306 306 307 307 307 307 308 312
273 274 273 274 275 276 276 277 278 279 279 275 274 273 272 270 270 272 272 273 274 274 274 274 274 274 275 275 275 275 275 276 276 276 276 277 276 275 275 275 275 273 275 280 283 281 283 284 283 286 285 283 281 284 286 288 289 290 291 292 293 296 299 301 303 304 305 306 307 307 307 307 309 313
272 271 271 271 273 275 276 278 278 278 278 277 274 272 270 271 272 276 273 273 276 274 274 274 275 275 275 274 275 275 276 276 277 277 278 278 278 277 276 275 275 275 277 280 283 280 279 281 282 285 284 284 284 284 285 287 289 289 290 291 291 294 300 305 304 307 304 305 306 307 307 307 308 312
271 270 270 270 272 276 277 277 277 277 277 276 272 271 275 277 277 273 273 272 271 272 272 273 274 274 274 274 274 275 276 277 278 278 278 278 278 279 279 278 276 275 277 281 284 281 280 280 281 281 283 283 283 284 284 285 287 289 290 291 292 295 302 305 306 307 308 309 309 308 309 306 308 309
269 270 270 271 274 276 276 275 276 276 276 273 271 275 276 276 276 274 270 270 269 270 271 272 273 274 274 273 274 274 275 276 277 277 278 278 279 279 280 281 281 280 281 282 282 283 282 282 284 283 283 284 283 284 284 283 284 288 288 290 291 294 303 307 306 306 308 309 309 307 306 306 307 308
270 270 271 272 275 274 274 274 274 274 273 271 274 275 275 275 273 269 268 268 268 268 269 269 270 273 275 275 275 276 277 278 278 279 280 280 280 280 280 281 282 282 282 282 283 283 283 283 284 285 285 284 283 282 282 285 286 286 286 289 290 292 301 306 307 306 306 308 309 309 308 308 309 311
270 273 274 274 273 273 273 273 272 270 270 272 273 273 273 272 268 267 267 267 267 267 267 268 269 270 272 273 275 277 278 279 279 279 279 280 281 281 282 282 283 283 284 284 285 285 285 285 284 286 285 285 284 284 284 283 284 285 286 286 286 289 297 307 308 307 306 308 309 308 308 308 309 310
273 272 271 271 271 270 269 267 266 266 267 271 271 271 271 267 267 267 266 267 267 266 267 267 268 269 271 272 273 274 275 274 275 278 278 279 279 280 280 281 282 284 285 285 286 286 286 286 286 286 285 285 285 284 284 284 283 285 286 286 287 289 291 301 308 308 305 306 307 307 309 310 310 309
266 266 267 267 269 268 270 269 269 268 268 266 266 266 266 266 266 267 267 267 267 267 267 267 268 269 270 272 272 272 272 273 275 277 279 279 279 281 281 281 280 282 284 285 286 286 286 286 286 286 284 285 285 285 285 285 284 285 286 287 287 284 289 301 307 307 307 307 307 307 308 309 309 303
265 264 266 265 263 264 263 263 263 263 263 264 264 264 265 265 267 268 270 270 268 268 268 268 269 269 269 269 269 270 271 272 273 276 277 279 280 281 281 280 280 281 282 284 285 285 286 286 286 287 286 285 284 285 285 285 284 285 285 286 287 289 290 293 304 307 308 307 306 305 307 308 309 310
262 260 261 260 261 261 261 261 261 261 262 262 263 263 264 265 265 266 266 265 266 267 267 267 267 267 268 268 269 270 270 270 272 274 275 277 279 281 282 280 280 281 281 282 284 285 285 285 286 287 287 287 286 286 285 283 285 286 285 286 287 287 290 294 302 306 307 306 304 304 305 308 309 310
258 258 258 259 259 260 260 260 260 260 261 261 262 262 265 264 264 265 265 265 266 267 267 267 267 267 268 268 268 268 268 269 270 272 273 273 275 277 280 280 280 282 282 282 283 284 285 285 286 286 286 286 287 286 286 284 284 286 286 287 287 287 290 293 303 307 306 305 304 303 303 305 308 310
257 257 257 258 258 259 259 259 260 260 261 261 261 262 263 263 264 265 265 265 266 266 266 267 267 268 267 267 267 267 267 267 268 269 271 272 273 275 278 280 281 281 282 282 282 284 284 285 285 284 285 285 284 285 287 287 285 285 286 287 288 288 289 294 302 305 306 305 306 302 302 304 305 309
257 257 257 257 258 259 259 259 260 260 260 261 261 261 262 263 264 264 264 266 266 266 266 266 267 267 267 267 266 266 266 267 267 267 268 269 271 273 276 279 281 282 282 282 282 284 284 284 284 283 282 283 283 282 283 287 287 287 285 286 287 288 290 294 300 304 304 304 304 304 302 301 303 307
256 257 257 257 258 258 258 259 259 260 260 261 261 262 262 262 263 264 265 266 266 266 267 267 267 267 267 266 266 266 266 266 265 266 266 267 269 270 272 275 279 281 282 282 283 283 284 283 284 284 283 282 282 282 284 287 286 288 288 287 288 289 291 296 301 302 304 304 304 304 304 304 304 306
255 256 256 257 257 258 258 259 260 260 260 261 261 262 262 263 264 265 266 265 265 266 267 267 267 267 266 266 265 265 265 265 265 265 265 266 267 268 270 272 276 280 282 283 284 284 284 284 284 284 284 282 281 282 283 287 287 287 288 289 288 290 293 298 300 301 302 304 304 305 306 304 304 307
255 256 256 256 257 258 258 258 259 259 260 261 261 261 262 263 263 264 264 264 265 266 267 267 266 266 266 266 266 265 264 264 264 264 265 265 266 267 268 270 273 277 280 282 284 284 285 284 285 285 285 284 283 284 286 287 287 291 290 289 291 291 294 300 301 301 301 302 304 305 305 307 307 303
255 255 255 256 256 257 258 258 259 260 260 260 261 261 262 262 263 263 264 264 265 267 267 267 267 267 266 265 265 265 264 264 264 264 264 265 265 267 268 270 271 274 277 280 282 284 284 285 285 285 286 286 287 288 289 290 292 293 293 291 289 292 296 301 301 301 301 302 304 302 302 303 302 302
254 254 254 255 256 256 257 258 258 259 260 260 261 262 262 262 263 263 264 265 266 267 266 266 266 266 265 265 265 264 263 264 264 264 264 265 265 266 268 270 270 273 275 278 281 283 284 285 287 287 287 288 289 290 289 288 288 290 292 295 292 290 293 299 305 303 302 302 302 302 300 300 299 300
253 253 254 255 255 256 256 257 258 259 259 260 260 261 262 262 263 266 265 265 266 267 266 266 266 266 265 265 264 264 263 263 263 264 264 264 264 265 267 268 268 271 273 276 279 282 286 287 287 287 288 288 287 286 285 287 288 290 292 295 295 294 295 295 299 301 306 304 302 300 300 300 300 299
253 253 253 254 255 256 256 257 258 258 259 260 260 261 261 262 263 263 263 264 266 267 266 266 266 265 265 264 264 264 264 263 264 264 264 264 265 264 265 266 268 270 273 276 281 284 286 287 287 287 288 288 287 287 286 288 290 291 292 294 293 293 294 295 297 298 299 299 300 302 303 300 299 297
251 252 253 254 254 255 256 256 257 258 259 259 260 261 261 262 262 263 263 264 266 266 266 266 266 265 265 264 264 264 264 264 264 264 264 264 265 265 266 267 269 270 272 275 277 281 285 286 287 288 287 287 288 288 288 289 290 291 293 293 291 293 295 295 297 297 298 299 298 293 291 291 296 301
251 251 252 253 254 255 255 256 257 257 258 259 260 261 262 262 263 263 263 265 267 267 266 266 265 265 265 264 264 263 264 266 265 264 264 264 265 265 266 267 268 270 271 274 277 281 285 286 287 288 288 288 289 289 290 290 291 291 292 292 291 293 294 295 297 298 297 295 292 294 297 295 293 295
Wind_Speed
6 6 7 8 8 8 7 7 7 7 7 7 8 8 9 9 12 15 17 22 19 20 11 11 13 7 9 11 8 11 11 15 18 17 18 19 16 17 22 25 28 30 32 33 33 32 30 29 27 26 27 27 28 29 30 32 34 32 31 31 29 27 26 26 28 32 33 37 39 38 38 39 40 41
6 7 8 7 8 7 6 6 6 6 7 8 8 9 9 10 13 14 17 22 17 18 20 13 12 10 7 8 12 10 13 19 23 20 20 17 16 24 29 28 30 32 33 33 33 34 33 31 31 31 27 24 22 25 27 28 31 35 34 34 33 31 28 26 26 30 33 35 39 43 44 44 42 37
5 7 8 8 9 8 8 8 8 7 8 9 9 9 10 11 13 14 15 20 22 15 18 22 13 13 13 11 13 14 13 17 22 18 13 14 20 29 25 30 30 31 32 31 30 30 30 31 31 30 28 28 29 29 28 28 29 32 35 36 34 31 28 27 26 28 32 37 42 49 50 50 49 44
6 7 9 8 8 8 7 8 7 7 8 9 9 9 10 12 12 12 16 21 26 19 20 22 22 17 16 14 13 14 16 12 16 15 17 20 25 21 19 28 33 32 34 35 34 33 32 31 32 30 30 30 31 30 31 32 32 32 33 35 36 32 30 28 26 27 30 31 35 38 36 36 38 41
7 7 9 9 9 8 9 8 8 8 8 9 9 9 10 12 13 14 17 19 22 20 17 19 19 17 15 18 14 13 14 16 14 15 16 17 15 15 16 17 28 35 36 37 37 37 35 33 32 33 32 32 31 32 32 34 33 31 32 33 37 34 31 30 29 27 30 29 33 33 34 36 36 35
5 7 9 10 9 7 8 8 9 8 8 8 10 11 13 14 13 10 11 13 15 20 16 17 18 20 16 19 18 16 14 16 15 16 15 14 15 16 17 17 19 33 34 36 36 36 37 36 36 36 33 30 29 32 34 34 33 31 30 32 33 32 32 31 30 28 29 32 31 38 44 43 41 41
6 8 9 10 8 7 9 9 9 9 10 9 11 13 11 13 13 13 13 14 18 20 20 21 22 20 16 16 19 18 18 19 18 18 17 15 15 14 17 18 17 28 35 36 36 39 38 38 39 38 39 33 27 28 32 37 33 30 29 30 30 30 30 30 30 28 27 34 35 33 36 39 41 43
7 8 9 9 8 8 10 10 9 9 9 10 10 12 12 12 15 13 14 14 16 17 20 18 18 19 17 18 18 18 16 15 14 14 17 15 16 17 16 19 19 23 35 37 38 37 36 37 36 36 38 34 31 28 27 33 36 29 27 27 28 29 29 29 30 29 26 31 35 35 33 35 36 36
8 8 9 9 8 8 10 10 10 10 11 11 11 12 12 11 15 14 14 15 15 17 20 20 17 19 19 17 18 17 17 18 15 13 15 15 16 17 17 16 18 27 35 36 37 36 35 35 34 37 37 37 33 29 27 30 36 32 28 27 28 29 30 30 29 30 27 29 35 37 37 36 38 39
8 9 9 9 9 9 10 11 11 11 13 12 13 14 14 14 13 14 14 17 16 19 19 19 19 17 18 17 17 15 15 15 15 14 15 16 16 16 17 17 15 13 13 12 14 20 25 29 35 38 37 36 34 31 27 31 37 35 29 28 28 29 29 29 29 30 29 26 34 39 38 40 40 39
9 9 9 10 10 11 12 12 12 12 14 13 15 15 15 15 14 17 14 15 17 15 19 16 18 19 17 16 18 14 14 16 15 18 17 19 15 12 13 15 13 12 14 19 27 26 25 30 27 26 29 29 30 30 31 34 38 36 31 28 28 29 29 29 28 30 29 26 28 33 40 40 41 41
11 12 12 12 12 12 12 12 13 13 13 13 17 15 15 14 17 14 16 13 15 15 14 20 15 16 17 15 15 14 14 16 15 11 13 18 18 16 15 17 16 17 15 16 17 20 24 27 32 35 29 29 28 29 28 31 35 35 31 29 28 28 28 28 29 29 28 26 29 34 37 41 41 41
12 12 12 13 12 13 18 23 22 21 20 13 12 10 10 12 14 14 14 14 12 15 14 16 15 17 18 17 15 16 16 14 16 15 12 16 17 15 15 17 13 14 16 15 14 18 20 18 16 13 11 12 17 21 27 27 33 33 31 30 29 28 28 28 29 30 28 27 29 34 36 36 40 42
13 13 12 12 20 21 22 23 24 25 26 27 21 17 14 14 13 12 13 14 13 14 15 16 14 16 16 16 16 16 17 16 16 17 16 17 17 13 15 17 15 8 9 13 16 11 9 11 9 8 9 10 13 12 13 13 16 22 28 29 30 29 28 28 28 28 28 28 30 33 36 35 36 37
12 12 13 12 14 17 19 19 25 25 26 27 29 30 29 25 19 16 16 16 13 13 15 14 14 17 18 18 17 18 17 17 17 18 16 16 16 15 15 18 18 10 5 12 15 19 13 9 11 10 10 11 11 11 12 17 19 23 25 26 28 29 29 29 29 27 28 29 30 33 36 39 39 38
11 13 13 12 10 11 14 15 15 20 27 29 30 31 31 30 31 28 21 18 16 16 16 17 16 16 17 17 14 16 15 17 17 17 15 17 15 14 14 16 17 17 8 12 13 17 19 12 13 15 14 12 12 13 16 20 20 20 23 27 28 27 28 29 29 27 26 30 31 33 38 38 41 41
12 12 12 13 12 11 23 19 16 17 18 23 30 32 33 32 33 32 34 33 25 18 19 19 20 17 17 19 15 12 14 14 17 14 14 14 13 15 19 17 16 19 5 10 15 18 22 15 14 15 16 14 12 13 16 20 20 20 20 23 27 27 28 28 29 28 27 29 32 33 34 41 41 42
12 13 12 12 13 13 12 13 15 17 18 17 17 16 14 13 20 28 31 33 35 31 22 20 22 20 17 20 19 17 17 19 16 13 14 11 12 14 16 19 17 19 9 11 13 18 22 16 13 15 16 12 10 10 17 21 21 22 23 22 23 26 27 28 28 29 28 31 33 36 36 38 43 42
12 13 14 15 15 16 15 14 18 18 16 16 15 16 17 15 11 11 13 15 17 18 18 21 23 23 20 19 18 16 14 16 14 12 16 15 14 16 16 16 15 18 13 13 13 17 18 14 13 14 13 11 11 11 16 22 22 22 22 22 24 24 26 27 28 29 29 32 34 36 38 36 40 43
12 14 14 15 17 17 14 19 26 22 19 18 19 19 18 17 15 14 16 25 26 23 20 19 20 19 21 26 23 21 18 15 15 16 15 14 11 12 16 16 14 14 13 10 13 14 17 14 12 13 11 9 11 12 11 19 21 20 21 22 23 24 25 27 27 28 30 33 35 36 37 38 38 42
11 12 14 15 14 16 15 20 26 28 26 17 18 19 20 19 18 16 15 23 32 34 36 37 39 40 40 38 38 38 39 30 23 16 16 19 13 14 17 15 14 17 11 9 10 14 18 14 12 13 11 10 12 13 13 11 16 19 20 21 23 23 25 27 28 29 31 33 36 37 39 39 36 40
10 13 21 20 16 15 16 24 28 28 23 17 17 18 19 21 20 17 15 14 17 29 34 36 37 37 37 37 38 38 37 37 28 19 22 17 12 17 15 14 13 13 13 11 6 13 18 16 13 12 12 12 11 12 11 12 10 12 13 18 20 22 24 26 29 30 32 35 37 39 42 41 39 32
9 9 11 19 19 18 21 28 26 29 25 17 16 16 17 18 19 16 16 16 18 17 16 18 19 22 27 24 21 21 31 33 28 19 18 15 16 18 16 15 13 16 17 10 7 14 16 14 16 13 13 14 11 8 10 8 6 8 9 10 14 21 22 25 29 31 33 36 39 41 42 43 41 26
8 9 10 12 18 23 25 26 29 29 29 20 16 15 14 16 20 17 18 19 18 20 17 16 17 19 19 17 17 16 16 17 19 21 18 15 13 16 15 15 15 18 16 8 8 13 13 11 13 9 11 9 11 6 5 9 9 9 9 10 12 19 24 26 27 33 34 36 40 43 43 43 42 26
9 10 11 10 17 24 26 27 29 28 27 25 18 15 14 16 21 26 19 21 27 18 17 17 17 16 14 14 13 13 13 14 14 15 17 15 16 16 17 17 17 19 18 13 14 12 16 15 15 11 8 5 8 12 14 10 11 9 9 10 12 15 15 16 16 19 31 39 41 44 46 46 46 32
9 11 12 11 17 26 27 26 26 27 25 27 16 16 25 31 32 24 18 17 16 14 15 15 15 13 12 11 11 12 13 13 13 12 14 15 17 18 18 19 19 18 16 11 21 17 16 16 17 17 16 13 14 10 14 15 11 9 9 9 11 15 17 14 16 18 21 25 28 35 40 46 43 41
10 11 12 13 23 27 27 26 26 25 28 22 17 27 29 29 32 26 14 15 15 14 15 15 14 12 11 11 11 11 12 14 14 15 15 17 17 19 19 21 20 20 17 16 16 16 15 16 15 15 15 11 13 12 11 13 15 9 10 11 12 15 15 14 16 17 19 22 23 41 41 42 41 39
11 11 12 15 26 24 25 25 25 25 23 18 26 28 29 29 26 15 15 13 15 16 15 15 14 13 11 10 12 11 12 12 13 14 15 16 17 20 19 20 21 20 19 19 18 17 17 17 17 14 13 12 11 10 13 12 11 11 12 13 11 14 15 15 16 17 19 20 21 24 24 26 29 30
10 15 23 24 22 22 22 24 23 19 20 24 25 27 28 26 13 13 13 13 14 14 15 14 14 13 13 13 15 15 14 14 14 15 14 16 17 18 18 19 19 19 18 17 17 18 17 17 17 14 13 11 11 12 12 15 11 13 10 11 14 13 13 14 17 18 19 19 22 22 22 24 25 25
15 17 18 20 20 18 17 14 12 13 15 23 25 25 24 13 12 12 13 13 14 14 14 15 15 14 14 14 15 17 17 15 15 15 15 15 16 16 16 16 17 16 17 17 17 18 18 16 14 12 12 12 12 14 14 13 15 14 11 11 13 14 15 15 16 17 20 19 19 23 21 22 24 23
6 11 12 12 16 15 20 20 19 18 18 14 13 11 11 11 11 12 12 13 15 15 14 14 13 13 14 15 15 13 12 14 14 14 16 16 16 15 14 15 16 15 14 14 15 15 14 13 12 13 13 13 12 14 14 11 16 14 13 10 9 11 13 13 16 16 19 19 16 19 21 21 20 21
6 6 9 10 7 8 8 9 7 8 9 10 11 11 11 11 12 15 21 19 13 13 13 13 14 14 13 14 13 13 13 14 15 14 15 16 16 14 14 14 14 13 12 11 11 12 14 12 11 12 13 13 14 12 10 12 15 14 15 12 10 12 13 16 15 16 20 21 20 19 21 22 21 20
3 3 5 5 7 7 8 9 9 9 10 10 10 12 12 11 11 11 11 13 13 13 13 13 13 14 13 13 13 13 13 14 15 14 15 16 16 15 14 15 13 12 12 12 10 10 10 11 13 14 13 13 14 13 13 14 14 13 14 15 11 13 12 15 16 16 19 21 21 19 17 21 21 21
2 4 4 6 7 9 9 10 10 11 11 12 12 11 14 13 11 12 12 12 13 13 13 13 13 13 12 12 13 14 14 15 15 15 17 16 15 15 15 14 13 12 13 12 11 11 9 9 9 11 13 14 13 15 15 16 17 13 13 12 11 13 14 14 15 18 19 19 22 21 19 19 21 21
4 5 6 7 7 7 8 9 10 11 11 12 12 13 12 12 13 14 13 15 14 14 14 13 12 12 11 13 13 14 15 16 16 15 14 14 15 15 14 14 12 11 11 11 11 10 10 10 10 11 11 11 12 14 19 20 16 17 13 12 11 12 13 14 14 17 20 19 21 23 18 18 19 19
4 4 6 7 7 8 8 9 10 10 11 11 12 13 13 14 13 14 15 15 15 15 14 13 13 12 13 13 13 13 14 16 16 15 17 15 15 15 14 14 13 12 11 12 12 10 9 10 10 12 13 12 14 15 14 26 28 17 14 14 12 12 13 14 14 16 19 18 20 23 22 21 19 19
5 6 6 6 7 8 9 10 10 11 11 11 12 12 13 14 14 14 15 18 14 13 14 14 13 14 13 14 14 13 14 14 15 15 16 16 15 15 15 15 15 13 13 12 11 10 9 10 11 12 13 15 16 17 16 5 26 32 16 16 14 12 12 13 13 17 19 20 18 21 22 19 19 20
4 4 5 7 7 8 9 9 10 11 11 12 12 13 13 13 14 15 16 14 15 14 14 14 14 14 13 13 14 14 13 13 13 15 15 15 15 15 14 14 14 13 12 12 11 11 10 11 12 13 13 16 15 15 15 7 4 15 28 19 15 13 12 13 15 16 17 19 21 19 20 22 22 22
4 6 6 7 8 9 10 10 10 11 12 12 12 13 14 14 14 15 14 15 14 14 15 15 14 14 15 14 13 13 14 13 13 14 15 15 14 15 15 14 14 13 13 13 13 13 13 13 13 13 13 14 16 15 11 8 12 8 15 32 20 14 13 14 15 16 17 18 19 18 18 20 22 28
5 4 5 6 8 8 9 10 10 11 12 12 13 13 13 14 14 14 15 15 15 15 15 15 16 16 14 13 13 14 14 14 14 13 14 15 16 16 15 15 15 15 13 14 14 12 12 12 13 14 13 14 12 10 10 12 11 9 7 19 37 25 15 13 17 17 17 18 18 18 16 16 17 15
4 5 5 5 7 8 9 10 10 11 11 12 13 14 14 14 15 14 15 17 16 16 16 16 16 15 14 14 14 14 14 13 13 13 14 15 17 17 18 18 16 14 14 15 14 14 14 12 12 16 14 11 11 10 12 14 15 13 12 10 21 35 29 21 18 20 18 18 18 19 18 17 15 15
4 5 6 6 7 8 8 10 10 11 12 12 13 13 14 14 13 23 20 20 18 16 16 16 15 15 14 14 14 13 13 13 13 13 15 15 15 15 17 15 15 15 14 15 14 15 12 9 10 11 11 12 12 13 16 14 13 13 10 9 6 14 24 27 26 26 24 22 20 19 19 17 16 17
4 5 7 8 7 8 9 10 10 11 12 12 13 14 14 15 15 16 16 17 16 15 16 16 15 14 14 14 14 13 14 12 13 15 15 15 15 15 14 14 14 15 15 14 13 15 14 12 10 10 11 11 13 13 14 14 13 11 8 5 5 2 1 13 25 24 26 29 30 28 24 22 19 18
4 5 6 7 8 9 9 10 10 11 12 12 13 13 13 14 15 17 13 13 15 15 16 16 15 15 16 15 15 14 13 13 13 13 15 16 15 15 15 15 16 16 15 14 15 16 14 12 11 10 11 13 13 13 15 14 12 9 8 5 3 5 6 5 7 13 19 27 20 11 9 5 11 38
5 5 6 7 8 9 9 9 10 11 11 12 12 13 14 14 15 17 15 15 14 16 17 16 16 16 16 15 15 15 14 17 16 14 15 16 15 14 15 15 15 16 16 15 14 16 14 12 11 11 12 14 13 13 12 12 11 8 7 6 7 5 5 9 13 13 11 5 7 16 17 16 18 14
Wind_Direction
265 263 262 258 262 257 254 255 255 254 258 257 257 252 256 261 271 287 294 291 296 294 286 283 293 281 277 286 287 295 298 303 306 305 298 292 290 293 295 295 296 296 296 294 293 291 291 291 287 278 264 256 257 259 259 263 268 268 266 264 263 263 264 264 253 239 220 208 200 198 194 190 188 186
262 262 263 258 265 264 261 261 257 253 254 257 254 255 253 250 256 265 275 281 284 292 294 274 283 290 277 290 293 290 295 294 295 287 282 283 290 296 299 299 297 294 291 289 286 285 284 280 279 275 276 275 268 265 265 267 269 270 267 263 259 259 258 258 254 239 224 216 203 198 194 188 187 188
262 267 266 268 267 270 272 268 265 264 262 262 261 257 256 253 253 261 264 275 276 280 289 289 281 284 292 288 291 292 284 281 277 275 283 293 296 299 299 297 296 295 292 290 289 287 285 279 273 273 270 268 267 265 265 265 266 270 271 265 259 255 255 256 254 242 229 220 213 204 195 188 183 183
274 274 274 274 275 279 279 274 271 268 263 263 264 264 262 261 258 259 263 263 273 280 281 287 290 293 294 292 290 292 290 273 284 295 291 289 290 289 288 288 286 285 287 289 290 288 286 283 281 275 270 268 265 263 263 264 264 265 266 266 260 253 252 253 251 242 229 216 212 205 195 192 188 182
279 281 282 280 281 289 286 287 289 287 288 289 285 284 281 276 269 262 261 264 271 277 278 281 285 295 305 297 292 287 287 290 285 278 278 280 283 286 285 286 286 284 280 279 280 281 282 281 280 277 272 268 266 264 262 261 261 259 260 262 259 252 247 247 248 242 228 215 198 192 189 186 187 184
273 280 279 280 285 290 287 291 286 286 286 284 283 279 278 274 275 279 287 283 285 286 290 290 291 291 294 292 294 293 294 291 293 286 283 284 285 284 282 279 278 278 277 275 274 272 272 276 280 281 279 276 275 271 263 260 257 254 254 256 255 249 246 244 245 242 229 216 214 200 188 187 187 187
277 277 275 279 286 287 286 282 281 282 279 278 275 274 272 274 275 279 281 286 281 282 284 284 289 287 289 283 291 295 288 281 282 285 285 285 284 279 280 281 279 276 275 274 271 269 268 270 271 273 273 266 263 265 272 268 256 251 250 250 250 247 243 240 240 240 228 212 204 207 197 188 186 185
274 273 277 274 275 276 275 275 274 271 269 270 269 270 267 268 271 269 267 260 270 276 278 277 279 286 290 288 289 286 285 286 290 284 286 282 278 280 280 278 275 271 271 269 268 268 265 264 263 265 265 265 267 265 263 265 262 252 249 247 248 246 244 239 237 236 228 212 202 197 194 189 186 186
269 268 266 271 272 273 271 271 269 270 267 263 264 264 264 262 271 269 266 266 266 273 274 279 277 282 283 284 283 286 287 285 280 283 280 282 281 280 276 273 272 274 275 272 271 269 264 262 261 261 260 263 262 256 256 261 263 255 246 246 247 245 243 240 235 234 229 215 201 197 191 189 186 184
263 264 263 265 265 265 266 269 267 265 265 263 259 257 259 257 254 252 258 262 265 266 268 270 277 273 279 282 278 281 281 286 289 286 283 281 278 282 283 278 275 271 267 267 266 267 266 263 259 257 257 257 257 257 252 255 258 254 246 243 243 244 242 240 235 233 228 220 211 193 192 188 189 189
256 258 261 263 262 261 261 263 265 264 259 260 258 258 261 262 259 265 256 259 257 260 267 266 269 275 273 272 279 278 276 279 278 286 289 288 287 277 274 280 281 272 275 276 277 277 275 271 267 257 249 250 253 254 256 255 253 250 247 241 239 239 240 239 236 234 230 217 217 206 191 190 188 188
261 258 257 254 254 256 256 256 258 262 269 268 270 264 261 259 261 257 261 255 259 256 261 266 266 266 275 273 271 277 276 278 277 264 279 285 291 296 295 288 288 288 282 282 283 280 275 270 260 257 258 259 258 256 256 256 252 250 248 244 238 236 235 236 235 234 230 218 210 211 200 190 187 188
263 264 263 263 256 259 265 269 273 272 269 267 267 256 226 239 247 255 256 257 254 257 258 261 264 268 267 268 269 276 271 268 272 280 275 280 281 284 283 281 266 267 278 278 280 278 270 257 247 245 251 254 259 257 252 252 252 250 247 244 240 235 231 232 232 231 227 218 210 209 205 194 188 185
263 264 264 265 271 279 282 284 284 285 284 281 280 281 280 278 272 260 258 258 254 258 259 258 259 262 257 259 256 262 264 269 271 274 273 276 281 283 279 275 266 266 275 281 281 293 327 312 302 291 272 266 261 262 254 242 241 245 244 240 239 234 231 230 231 228 223 216 210 207 200 194 189 188
276 275 276 273 269 273 278 279 277 282 284 283 281 283 283 280 277 279 280 277 273 264 259 259 251 254 258 258 253 255 265 262 266 271 273 272 275 277 286 290 294 254 261 306 309 300 293 285 292 288 275 268 263 256 254 256 246 243 243 241 236 233 230 229 232 227 220 214 209 204 202 189 186 184
278 282 281 278 275 270 268 272 277 281 278 280 284 283 283 282 281 277 274 278 278 276 277 272 264 258 258 259 251 257 259 259 260 262 261 263 264 269 270 275 280 290 333 292 301 295 291 293 290 288 281 276 270 262 260 260 263 261 253 243 236 230 228 227 230 229 219 213 208 204 198 192 184 183
283 284 281 280 273 264 271 276 270 269 274 276 276 280 281 280 275 275 275 271 269 275 274 275 276 270 274 268 256 240 250 251 260 261 260 260 264 267 275 274 279 281 329 310 294 291 288 288 280 279 278 275 268 266 264 265 268 269 267 259 242 231 225 224 226 227 220 215 208 205 204 189 186 182
278 275 276 276 275 272 272 272 275 277 276 278 278 275 267 255 263 267 266 268 267 268 270 273 273 273 269 273 278 275 273 272 271 273 265 260 263 264 262 270 271 278 290 281 291 284 278 275 272 267 270 264 263 263 271 272 272 274 274 272 264 241 227 223 223 222 218 214 209 201 203 197 184 181
274 280 280 277 279 286 282 276 276 285 286 286 289 289 288 281 260 244 245 248 256 258 258 260 263 269 266 265 268 266 260 259 260 258 266 265 262 269 273 271 264 275 268 262 256 260 269 271 262 261 262 268 266 262 271 273 268 265 268 268 267 261 238 225 221 219 215 211 205 200 195 197 188 179
280 279 277 282 282 281 277 286 291 295 301 301 300 298 294 289 281 270 266 271 272 268 263 258 258 260 260 262 262 261 255 254 255 257 261 264 259 268 268 265 270 259 265 243 256 264 271 269 262 267 262 261 270 271 266 270 266 263 265 266 265 263 251 231 221 217 212 206 201 194 191 190 190 180
271 274 278 280 287 294 293 302 307 308 308 304 301 294 291 288 284 280 275 271 274 275 274 272 271 272 273 272 271 271 269 266 258 255 257 257 258 259 261 261 263 266 267 238 243 271 276 275 273 269 266 262 271 275 272 267 266 265 265 267 264 260 253 235 221 216 208 202 196 190 186 184 185 183
273 275 288 300 299 303 307 309 310 311 310 299 297 297 294 293 290 286 284 279 273 274 275 274 274 273 271 271 273 273 272 273 271 260 258 258 259 258 255 265 266 275 265 254 239 265 263 281 274 277 280 280 261 262 261 261 268 276 287 289 282 266 250 235 220 212 205 198 192 188 182 181 179 180
275 278 292 302 307 309 306 310 312 311 311 306 305 302 298 294 293 296 297 293 287 281 271 266 263 264 265 267 264 265 269 272 273 269 266 262 251 256 260 262 272 273 264 262 233 255 266 258 259 262 276 273 270 234 249 247 274 290 290 291 293 288 265 237 219 209 203 196 190 185 183 179 175 176
295 299 303 309 309 308 311 312 313 315 316 315 309 306 304 303 301 302 292 285 283 283 275 267 260 260 260 257 258 261 264 264 261 264 264 259 254 260 264 263 259 263 270 274 259 273 279 271 270 231 232 267 286 271 236 287 277 283 289 297 301 298 285 239 217 208 199 195 189 183 181 181 176 174
311 315 312 307 305 310 314 317 318 319 318 317 315 314 306 298 297 303 304 305 305 296 290 283 276 267 254 251 250 250 250 250 252 254 257 257 258 258 261 259 256 257 260 259 257 252 262 271 275 271 256 231 271 291 286 279 279 284 294 295 301 294 278 234 209 207 197 191 189 184 181 179 177 173
317 313 308 300 309 317 321 324 324 322 320 320 323 309 305 308 311 312 313 313 308 298 292 285 276 266 254 252 250 249 249 247 246 250 253 255 255 254 251 252 254 258 257 248 244 239 249 256 255 262 269 275 278 270 287 289 276 288 297 299 297 289 267 221 203 200 196 191 187 185 182 178 176 174
314 308 303 301 315 323 326 326 326 326 324 323 312 312 315 316 318 320 316 307 304 299 299 298 289 276 264 256 255 248 250 250 245 249 248 250 250 249 249 247 247 250 254 250 245 242 244 254 250 252 257 254 266 269 266 281 292 309 302 292 297 292 264 212 197 195 192 189 189 184 180 176 175 174
310 307 310 320 325 326 328 330 331 329 325 319 317 319 320 322 323 315 309 306 304 303 299 300 300 300 294 279 267 260 259 256 248 247 247 248 248 252 251 249 246 245 244 243 243 241 243 248 252 248 245 250 254 258 271 266 270 291 295 295 293 289 273 214 195 189 189 187 182 183 176 174 176 174
303 317 324 326 328 331 334 335 335 331 325 322 322 322 323 325 315 312 306 306 304 303 304 302 299 295 297 298 298 296 293 285 274 265 262 259 258 256 253 251 248 246 242 240 239 240 242 241 244 244 243 241 250 257 264 271 275 275 272 294 293 290 286 231 197 188 185 186 181 178 178 174 177 175
330 336 332 331 333 336 335 335 332 328 325 325 325 324 323 316 311 308 307 305 307 305 306 304 301 300 300 299 300 299 297 294 286 281 270 264 258 255 253 252 250 244 241 239 240 241 239 238 233 233 240 244 244 256 257 268 269 265 265 261 273 289 278 253 209 186 179 182 181 173 174 177 176 173
6 336 334 332 335 334 332 331 326 322 320 318 317 313 311 310 308 307 306 309 310 307 303 303 301 300 300 300 299 294 293 288 285 284 279 265 258 255 253 254 256 257 247 239 236 234 233 232 232 231 241 246 247 245 253 255 263 268 268 255 258 253 281 267 215 189 179 174 176 176 168 173 173 175
354 331 321 330 321 320 320 320 310 308 312 314 315 313 312 309 309 313 314 312 303 298 300 300 301 299 299 298 297 294 292 291 290 290 289 284 268 255 252 252 253 255 258 248 238 231 227 223 226 230 234 239 243 247 243 245 250 257 262 262 251 256 257 267 236 192 179 170 170 179 173 170 172 174
334 308 326 320 328 329 328 322 319 316 318 318 317 314 312 314 314 313 318 319 313 307 305 302 302 300 299 299 300 298 295 291 293 292 292 292 290 273 253 250 251 252 258 255 247 234 221 225 222 229 230 234 237 240 246 249 246 244 253 259 254 255 262 258 242 196 175 172 171 170 177 171 171 173
333 336 335 330 335 332 330 325 321 324 323 323 323 320 320 318 315 317 318 317 314 310 306 303 300 297 297 300 305 304 299 298 296 293 293 292 291 289 274 258 248 247 249 250 250 247 240 226 222 229 235 237 234 228 231 240 249 247 241 252 246 256 254 263 238 192 178 176 166 168 173 175 172 174
360 346 342 335 333 326 322 317 319 321 322 323 322 321 320 316 317 318 317 316 313 310 306 303 298 294 297 302 303 302 300 299 297 296 293 290 291 285 282 271 257 248 244 246 246 241 241 240 236 238 236 232 234 239 223 225 243 242 248 242 247 243 259 257 232 191 176 175 170 165 169 172 172 173
352 344 342 336 331 324 322 318 317 319 319 320 320 320 321 321 320 318 316 314 312 307 304 302 302 303 304 302 300 297 296 298 296 296 295 292 291 290 288 280 266 253 246 248 248 241 234 238 234 241 249 247 236 239 237 212 216 235 231 245 234 242 248 253 224 189 175 176 176 162 168 172 172 171
355 351 338 324 321 325 321 319 320 318 319 318 319 318 318 318 319 314 311 313 307 301 304 307 306 307 305 304 299 296 296 296 293 293 291 292 288 287 286 286 282 269 255 247 242 236 226 231 230 234 241 248 250 250 249 151 207 213 221 230 241 232 243 242 209 186 179 171 175 171 165 167 171 173
2 337 331 331 328 322 317 315 318 318 318 319 316 316 314 313 313 311 313 315 312 307 309 311 306 307 304 305 303 299 295 290 290 291 288 287 286 284 282 283 282 278 271 253 241 232 221 229 229 231 232 242 249 250 261 226 197 215 211 216 229 237 233 230 201 182 175 172 172 174 162 168 175 174
355 351 344 330 323 320 319 319 320 319 318 317 318 317 315 314 315 315 316 314 308 308 314 313 310 308 309 307 302 298 298 297 291 288 287 286 280 280 279 277 277 275 273 265 250 239 230 226 224 228 228 233 241 247 260 270 247 246 207 210 219 227 231 216 193 176 168 171 172 173 175 169 166 167
348 342 323 319 313 315 314 317 317 316 316 316 315 314 313 315 313 314 315 313 307 312 316 313 311 311 309 308 303 301 294 288 286 287 286 284 282 277 274 273 274 276 275 269 260 243 231 224 222 229 230 236 252 269 282 272 272 259 244 210 212 214 222 207 188 170 169 173 165 166 165 160 160 153
339 331 319 311 307 312 315 315 314 314 314 314 313 314 314 311 313 311 314 315 309 314 318 316 314 312 311 311 308 303 298 294 290 283 283 283 280 276 272 273 273 270 270 266 261 253 244 233 229 230 231 239 241 251 249 251 250 254 248 236 214 214 220 218 186 171 169 165 165 162 157 158 148 150
328 320 315 316 316 315 315 313 315 315 314 315 315 314 314 314 310 317 319 314 307 312 317 317 315 315 313 312 309 303 298 293 287 283 286 284 280 275 271 269 268 270 264 263 261 258 256 241 231 227 227 226 230 231 238 236 242 245 246 244 245 215 218 216 197 180 167 162 161 164 160 151 148 156
336 324 320 319 318 315 316 313 315 315 315 315 314 314 314 315 315 318 320 314 309 317 320 318 316 315 314 313 309 305 300 294 294 289 287 284 280 275 273 266 264 265 267 270 270 264 256 245 230 227 228 227 229 229 239 235 236 237 241 233 211 151 102 227 207 183 172 171 170 167 163 158 155 165
326 321 314 315 316 314 313 313 313 314 314 314 312 313 315 316 318 316 307 303 309 319 321 318 316 317 317 315 312 306 304 300 296 294 292 291 283 277 273 271 268 266 265 261 265 262 255 245 234 229 229 230 229 227 231 232 230 229 224 212 170 142 142 114 154 177 174 171 160 120 87 67 187 175
319 317 314 315 312 311 309 311 312 312 313 313 314 315 316 317 317 317 310 304 311 319 321 320 319 319 318 316 316 313 311 308 305 297 291 287 281 274 270 268 267 266 262 258 256 258 252 242 235 226 229 233 227 225 227 222 225 216 207 183 174 161 142 140 150 156 148 106 64 116 135 125 95 123